Date String (YYYY-MM-DD hh:mm:ss) UTC,Instrument flags,Ambient pressure (hPa),Sample flow (lpm),Bypass flow (lpm),Sample temperature (°C),Ambient temperature (°C),ASC tube jacket temperature (°C),LED temperature (°C),Box temperature (°C),Sample RH (%),Span deviation,Mass concentration (μg/m³),Mass concentration (μg/m³),Mass concentration (μg/m³)
DateTimeUTC,F1_M11,P_M11,Q1_M11,Q2_M11,T1_M11,T2_M11,T3_M11,T4_M11,T5_M11,U1_M11,ZSPAN_M11,X0_M11,X2_M11,X1_M11
2023-02-27 06:00:00,,0809.0,4.99,0.00,22.1,23.0,00.0,30.8,24.2,11.3,0000.0,0002.58,0000.84,0000.42
2023-02-27 06:01:00,,0808.9,5.00,0.00,22.2,22.6,00.0,30.8,24.2,11.1,0000.0,0002.65,0000.87,0000.42
2023-02-27 06:02:00,,0809.0,4.99,0.00,22.3,22.2,00.0,30.9,24.2,11.1,0000.0,0002.88,0000.87,0000.42
2023-02-27 06:03:00,,0808.8,4.99,0.00,22.3,21.8,00.0,30.9,24.1,11.2,0000.0,0002.44,0000.89,0000.42
2023-02-27 06:04:00,,0808.5,5.01,0.00,22.2,21.4,00.0,30.9,24.0,11.2,0000.0,0002.38,0000.92,0000.43
2023-02-27 06:05:00,,0808.5,5.00,0.00,22.2,21.2,00.0,30.9,24.0,11.0,0000.0,0002.31,0000.93,0000.43
2023-02-27 06:06:00,,0808.7,5.00,0.00,22.2,21.0,00.0,30.9,24.0,11.0,0000.0,0002.34,0000.94,0000.43
2023-02-27 06:07:00,,0808.6,5.00,0.00,22.2,20.8,00.0,30.9,24.0,11.2,0000.0,0002.38,0000.95,0000.43
2023-02-27 06:08:00,,0808.4,5.00,0.00,22.2,20.7,00.0,30.9,23.9,11.2,0000.0,0002.39,0000.96,0000.43
2023-02-27 06:09:00,,0808.5,5.00,0.00,22.2,20.6,00.0,30.9,23.9,11.2,0000.0,0002.47,0000.94,0000.42
2023-02-27 06:10:00,,0808.5,5.00,0.00,22.2,20.6,00.0,30.9,23.9,11.2,0000.0,0002.86,0000.95,0000.42
2023-02-27 06:11:00,,0808.7,5.00,0.00,22.2,20.5,00.0,30.9,23.8,11.3,0000.0,0003.52,0000.94,0000.43
2023-02-27 06:12:00,,0808.8,5.00,0.00,22.1,20.4,00.0,30.9,23.7,11.4,0000.0,0003.36,0000.89,0000.43
2023-02-27 06:13:00,,0809.0,5.01,0.00,22.1,20.3,00.0,30.9,23.8,11.5,0000.0,0003.19,0000.92,0000.43
2023-02-27 06:14:00,,0809.0,5.00,0.00,22.1,20.3,00.0,30.9,23.8,11.7,0000.0,0003.10,0000.88,0000.44
2023-02-27 06:15:00,,0809.1,4.98,0.00,22.1,20.4,00.0,30.9,23.8,11.7,0000.0,0002.96,0000.82,0000.44
2023-02-27 06:16:00,,0809.0,4.99,0.00,22.1,20.4,00.0,30.9,23.8,11.6,0000.0,0002.88,0000.80,0000.43
2023-02-27 06:17:00,,0809.1,4.99,0.00,22.1,20.4,00.0,30.9,23.8,11.5,0000.0,0002.96,0000.83,0000.44
2023-02-27 06:18:00,,0809.3,5.00,0.00,22.1,20.4,00.0,30.9,23.8,11.6,0000.0,0002.94,0000.84,0000.44
2023-02-27 06:19:00,,0809.2,5.00,0.00,22.1,20.3,00.0,30.9,23.8,11.6,0000.0,0002.93,0000.84,0000.44
2023-02-27 06:20:00,,0809.2,5.00,0.00,22.0,20.2,00.0,30.9,23.7,11.5,0000.0,0002.96,0000.89,0000.46
2023-02-27 06:21:00,,0809.2,5.00,0.00,22.0,20.2,00.0,30.9,23.7,11.5,0000.0,0003.01,0000.90,0000.46
2023-02-27 06:22:00,,0809.3,5.01,0.00,22.0,20.1,00.0,30.8,23.6,11.5,0000.0,0002.02,0000.90,0000.46
2023-02-27 06:23:00,,0809.2,4.98,0.00,21.9,20.1,00.0,30.8,23.6,11.5,0000.0,0002.06,0000.92,0000.46
2023-02-27 06:24:00,,0809.1,4.98,0.00,22.0,20.7,00.0,30.8,23.8,11.3,0000.0,0002.25,0000.93,0000.46
2023-02-27 06:25:00,,0809.3,5.00,0.00,22.1,22.0,00.0,30.8,24.0,11.2,0000.0,0002.35,0000.94,0000.45
2023-02-27 06:26:00,,0809.2,5.01,0.00,22.2,22.7,00.0,30.8,24.2,11.0,0000.0,0002.29,0000.93,0000.45
2023-02-27 06:27:00,,0809.2,5.00,0.00,22.2,22.4,00.0,30.8,24.2,11.1,0000.0,0002.24,0000.93,0000.44
2023-02-27 06:28:00,,0809.2,5.01,0.00,22.2,21.9,00.0,30.9,24.0,10.8,0000.0,0002.16,0000.87,0000.44
2023-02-27 06:29:00,,0809.2,5.00,0.00,22.2,21.4,00.0,30.9,23.9,10.6,0000.0,0002.31,0000.84,0000.44
2023-02-27 06:30:00,,0809.3,4.99,0.00,22.1,20.9,00.0,30.9,23.8,10.7,0000.0,0002.44,0000.81,0000.43
2023-02-27 06:31:00,,0809.2,5.00,0.00,22.1,20.7,00.0,30.9,23.7,10.7,0000.0,0002.25,0000.74,0000.43
2023-02-27 06:32:00,,0809.2,4.99,0.00,22.1,20.5,00.0,30.9,23.7,10.6,0000.0,0002.24,0000.73,0000.43
2023-02-27 06:33:00,,0809.2,5.00,0.00,22.0,20.4,00.0,30.9,23.7,10.4,0000.0,0002.18,0000.72,0000.42
2023-02-27 06:34:00,,0809.2,5.01,0.00,22.0,20.3,00.0,30.9,23.6,10.5,0000.0,0002.14,0000.71,0000.42
2023-02-27 06:35:00,,0809.2,5.01,0.00,21.9,20.2,00.0,30.8,23.5,10.4,0000.0,0001.83,0000.70,0000.42
2023-02-27 06:36:00,,0809.3,5.00,0.00,21.9,20.1,00.0,30.8,23.5,10.3,0000.0,0001.84,0000.72,0000.42
2023-02-27 06:37:00,,0809.2,5.01,0.00,21.9,20.1,00.0,30.8,23.5,10.5,0000.0,0001.92,0000.75,0000.43
2023-02-27 06:38:00,,0809.1,5.00,0.00,21.9,20.1,00.0,30.8,23.5,10.6,0000.0,0002.04,0000.79,0000.44
2023-02-27 06:39:00,,0809.4,4.99,0.00,21.9,20.1,00.0,30.8,23.5,10.5,0000.0,0002.10,0000.82,0000.44
2023-02-27 06:40:00,,0809.4,5.00,0.00,21.8,20.1,00.0,30.8,23.5,10.7,0000.0,0001.93,0000.82,0000.44
2023-02-27 06:41:00,,0809.3,5.00,0.00,21.8,20.0,00.0,30.7,23.4,10.8,0000.0,0001.91,0000.85,0000.44
2023-02-27 06:42:00,,0809.3,5.00,0.00,21.8,20.0,00.0,30.7,23.4,10.5,0000.0,0002.72,0000.86,0000.43
2023-02-27 06:43:00,,0809.3,4.99,0.00,21.8,19.9,00.0,30.7,23.4,10.4,0000.0,0003.01,0000.84,0000.43
2023-02-27 06:44:00,,0809.3,5.01,0.00,21.7,19.9,00.0,30.7,23.3,10.4,0000.0,0003.01,0000.85,0000.44
2023-02-27 06:45:00,,0809.3,5.00,0.00,21.7,19.8,00.0,30.6,23.3,10.5,0000.0,0002.98,0000.84,0000.44
2023-02-27 06:46:00,,0809.3,5.01,0.00,21.6,19.8,00.0,30.6,23.2,10.5,0000.0,0003.40,0000.88,0000.43
2023-02-27 06:47:00,,0809.3,5.01,0.00,21.7,20.7,00.0,30.6,23.4,10.4,0000.0,0003.81,0000.88,0000.43
2023-02-27 06:48:00,,0809.3,4.99,0.00,21.8,21.9,00.0,30.6,23.7,10.4,0000.0,0003.90,0000.89,0000.43
2023-02-27 06:49:00,,0809.3,5.01,0.00,21.9,22.6,00.0,30.6,23.9,10.3,0000.0,0003.84,0000.87,0000.42
2023-02-27 06:50:00,,0809.3,4.97,0.00,22.0,22.2,00.0,30.7,23.9,10.3,0000.0,0003.77,0000.86,0000.42
2023-02-27 06:51:00,,0809.4,5.02,0.00,22.0,21.6,00.0,30.7,23.8,10.3,0000.0,0003.91,0000.91,0000.43
2023-02-27 06:52:00,,0809.3,5.00,0.00,21.9,21.2,00.0,30.7,23.6,10.4,0000.0,0003.87,0000.90,0000.43
2023-02-27 06:53:00,,0809.3,5.00,0.00,21.9,20.8,00.0,30.7,23.5,10.3,0000.0,0003.09,0000.92,0000.45
2023-02-27 06:54:00,,0809.2,5.00,0.00,21.8,20.6,00.0,30.7,23.4,10.4,0000.0,0002.70,0000.92,0000.45
2023-02-27 06:55:00,,0809.3,4.99,0.00,21.8,20.3,00.0,30.7,23.3,10.1,0000.0,0002.72,0000.91,0000.45
2023-02-27 06:56:00,,0809.4,5.01,0.00,21.7,20.1,00.0,30.7,23.3,10.4,0000.0,0002.69,0000.90,0000.45
2023-02-27 06:57:00,,0809.3,4.99,0.00,21.7,19.9,00.0,30.6,23.2,10.6,0000.0,0002.24,0000.85,0000.46
2023-02-27 06:58:00,,0809.4,5.01,0.00,21.6,19.7,00.0,30.6,23.1,10.6,0000.0,0001.82,0000.81,0000.45
2023-02-27 06:59:00,,0809.4,5.01,0.00,21.6,19.6,00.0,30.6,23.0,10.6,0000.0,0001.64,0000.77,0000.45
